CW2931 Weather Reports


time (UTC)temp
C
wind
direction
speed
KPH
gust
KPH
rain 1hr
cm
rain 24hr
cm
rain mn
cm
humidity
%
barometer
mb
20260503211605 17 228 0.0 0.0 0.00 0.00 0.00 38 1009.1
20260503210605 17 224 0.0 0.0 0.00 0.00 0.00 38 1009.1
20260503210105 17 224 0.0 0.0 0.00 0.00 0.00 38 1009.1
20260503205105 17 254 0.0 0.0 0.00 0.00 0.00 37 1009.3
20260503204605 18 222 0.0 0.0 0.00 0.00 0.00 37 1009.3
20260503204105 18 252 0.0 0.0 0.00 0.00 0.00 37 1009.2
20260503203605 18 253 0.0 0.0 0.00 0.00 0.00 37 1009.3
20260503202105 18 234 0.0 0.0 0.00 0.00 0.00 37 1009.5
20260503201605 18 227 0.0 0.0 0.00 0.00 0.00 37 1009.5
20260503201105 17 234 0.0 0.0 0.00 0.00 0.00 38 1009.6
20260503200609 17 242 0.0 0.0 0.00 0.00 0.00 39 1009.7
20260503110605 4 250 0.0 0.0 0.00 0.00 0.00 67 1014.1
20260503110105 3 245 0.0 0.0 0.00 0.00 0.00 67 1014.1
20260503100104 3 240 0.0 0.0 0.00 0.00 0.00 69 1014.3
20260503090105 2 238 0.0 0.0 0.00 0.00 0.00 75 1014.6
20260503081605 2 251 0.0 0.0 0.00 0.03 0.00 76 1014.7
20260503081105 2 250 0.0 0.0 0.00 0.03 0.00 76 1014.7
20260503080604 2 250 0.0 0.0 0.00 0.03 0.00 76 1014.8
20260503080104 2 250 0.0 0.0 0.00 0.03 0.00 76 1014.8
20260503072605 2 250 0.0 0.0 0.00 0.03 0.00 76 1014.9
20260503072104 2 250 0.0 0.0 0.00 0.03 0.00 76 1015.0
20260503071604 2 250 0.0 0.0 0.00 0.03 0.00 76 1015.0
20260503071105 2 249 0.0 0.0 0.00 0.03 0.00 76 1015.1
20260503070605 2 250 0.0 0.0 0.00 0.03 0.00 76 1015.1
20260503070105 2 249 0.0 0.0 0.00 0.03 0.00 75 1015.1
20260503060105 3 248 0.0 0.0 0.00 0.05 0.00 75 1015.4
20260503054604 3 248 0.0 0.0 0.00 0.05 0.00 75 1015.5
20260503053604 3 247 0.0 0.0 0.00 0.05 0.00 75 1015.6
20260503053104 3 247 0.0 0.0 0.00 0.08 0.00 74 1015.6
20260503052604 3 248 0.0 0.0 0.00 0.08 0.00 74 1015.6
20260503052104 3 246 0.0 0.0 0.00 0.08 0.00 74 1015.7
20260503051605 3 246 0.0 0.0 0.00 0.08 0.00 74 1015.7
20260503051104 3 246 0.0 0.0 0.00 0.08 0.00 74 1015.7
20260503050604 3 246 0.0 0.0 0.00 0.08 0.00 73 1015.7
20260503050105 3 246 0.0 0.0 0.00 0.08 0.00 73 1015.7
20260503045104 3 246 0.0 0.0 0.00 0.08 0.00 72 1015.8
20260503044604 3 245 0.0 0.0 0.00 0.08 0.00 72 1015.8
20260503043605 3 245 0.0 0.0 0.00 0.08 0.00 71 1015.8
20260503043104 3 245 0.0 0.0 0.00 0.08 0.00 71 1015.7
20260503042605 3 245 0.0 0.0 0.00 0.08 0.00 71 1015.7
20260503042104 3 246 0.0 0.0 0.00 0.08 0.00 71 1015.8
20260503041604 3 245 0.0 0.0 0.00 0.08 0.00 71 1015.8
20260503041104 3 246 0.0 0.0 0.00 0.08 0.00 71 1015.8
20260503040604 3 245 0.0 0.0 0.00 0.08 0.00 70 1015.9
20260503040104 3 244 0.0 0.0 0.00 0.08 0.00 70 1015.8
20260503035604 3 245 0.0 0.0 0.00 0.08 0.08 70 1015.9
20260503034604 4 244 0.0 0.0 0.00 0.08 0.08 69 1015.9
20260503034104 4 244 0.0 0.0 0.00 0.08 0.08 69 1016.0
20260503033604 4 244 0.0 0.0 0.00 0.08 0.08 68 1016.0
20260503033104 4 243 0.0 0.0 0.00 0.08 0.08 68 1016.1
20260503032605 4 242 0.0 0.0 0.00 0.08 0.08 68 1016.1
20260503032105 4 244 0.0 0.0 0.00 0.08 0.08 67 1016.1
20260503031604 4 244 0.0 0.0 0.00 0.08 0.08 67 1016.1
20260503030605 5 244 0.0 0.0 0.00 0.08 0.08 66 1016.1
20260503030105 5 244 0.0 0.0 0.00 0.08 0.08 66 1016.2
20260503025104 5 243 0.0 0.0 0.00 0.08 0.08 64 1016.2
20260503024604 5 244 0.0 0.0 0.00 0.08 0.08 64 1016.2
20260503024105 5 245 0.0 0.0 0.00 0.08 0.08 63 1016.3
20260503023604 5 246 0.0 0.0 0.00 0.08 0.08 63 1016.3
20260503022105 6 248 0.0 0.0 0.00 0.08 0.08 61 1016.3
20260503021605 6 249 0.0 0.0 0.00 0.08 0.08 60 1016.3
20260503020604 6 249 0.0 0.0 0.00 0.08 0.08 59 1016.2
20260503020104 6 249 0.0 0.0 0.00 0.08 0.08 58 1016.2
20260503015604 6 248 0.0 0.0 0.00 0.08 0.08 58 1016.2
20260503015105 6 250 0.0 0.0 0.00 0.08 0.08 58 1016.2
20260503014604 6 249 0.0 0.0 0.00 0.08 0.08 57 1016.2
20260503013104 7 249 0.0 0.0 0.00 0.08 0.08 56 1016.1
20260503012605 7 248 0.0 0.0 0.00 0.08 0.08 54 1016.1
20260503012105 7 246 0.0 0.0 0.00 0.08 0.08 53 1016.1
20260503011604 8 242 0.0 0.0 0.00 0.08 0.08 53 1016.1
20260503011104 8 242 0.0 0.0 0.00 0.08 0.08 52 1016.1
20260503010605 8 238 0.0 0.0 0.00 0.08 0.08 52 1016.1
20260503010104 8 246 0.0 0.0 0.00 0.08 0.08 51 1016.1
20260503005104 8 236 0.0 0.0 0.00 0.08 0.08 49 1016.0
20260503004605 9 233 0.0 0.0 0.00 0.08 0.08 48 1016.0
20260503004104 9 255 0.0 0.0 0.00 0.08 0.08 47 1015.9
20260503003604 9 256 0.0 0.0 0.00 0.08 0.08 46 1015.8
20260503003104 9 256 0.0 0.0 0.00 0.08 0.08 46 1015.8
20260503001604 9 254 0.0 0.0 0.00 0.08 0.08 45 1015.8
20260503001105 9 254 0.0 0.0 0.00 0.08 0.08 45 1015.8
20260503000605 9 241 0.0 0.0 0.00 0.08 0.08 45 1015.7
20260503000104 9 0 0.0 0.0 0.00 0.08 0.08 45 1015.7
20260502235604 9 267 0.0 0.0 0.00 0.08 0.08 45 1015.8
20260502235105 9 254 0.0 0.0 0.00 0.08 0.08 45 1015.7
20260502234604 9 283 0.0 0.0 0.00 0.08 0.08 44 1015.7
20260502234104 9 344 0.0 0.0 0.00 0.08 0.08 45 1015.7
20260502233104 9 283 0.0 0.0 0.00 0.08 0.08 44 1015.8
20260502232604 9 278 0.0 0.0 0.00 0.08 0.08 45 1015.8
20260502231604 10 263 0.0 0.0 0.00 0.08 0.08 44 1015.8
20260502230604 10 282 0.0 0.0 0.00 0.08 0.08 43 1015.9
20260502230104 10 261 0.0 0.0 0.00 0.08 0.08 44 1015.9
20260502225604 10 265 0.0 0.0 0.00 0.08 0.08 43 1015.8
20260502225104 10 259 0.0 0.0 0.00 0.08 0.08 44 1015.8
20260502224605 10 299 0.0 0.0 0.00 0.08 0.08 43 1015.8
20260502224104 10 271 0.0 0.0 0.00 0.08 0.08 42 1015.8
20260502223603 10 271 0.0 0.0 0.00 0.08 0.08 42 1015.9
20260502223104 10 262 0.0 0.0 0.00 0.08 0.08 42 1015.9
20260502222604 10 316 0.0 0.0 0.00 0.08 0.08 42 1015.9
20260502222104 10 298 0.0 0.0 0.00 0.08 0.08 42 1016.0
20260502221604 10 249 0.0 0.0 0.00 0.08 0.08 42 1016.0
20260502221104 10 266 0.0 0.0 0.00 0.08 0.08 42 1015.9
20260502220604 10 299 0.0 0.0 0.00 0.08 0.08 44 1015.9
20260502220104 10 248 0.0 0.0 0.00 0.08 0.08 43 1015.9
20260502215604 10 317 0.0 0.0 0.00 0.08 0.08 44 1015.9
20260502215104 10 321 0.0 0.0 0.00 0.08 0.08 44 1016.0
20260502214104 10 286 0.0 0.0 0.00 0.08 0.08 42 1016.0
20260502213604 10 277 0.0 0.0 0.00 0.08 0.08 42 1016.0
20260502213104 10 259 0.0 0.0 0.00 0.08 0.08 42 1016.0
20260502212604 10 283 0.0 0.0 0.00 0.08 0.08 43 1016.0
20260502212105 10 358 0.0 0.0 0.00 0.08 0.08 43 1016.0